Location: Paris
(48.8567°N, 2.3515°E)
Time: 03:33:01
(UTC+01:00)

ISS - Pass Details

Date: 27 July 2020
Orbit: 418 x 421 km, 51.6° (Epoch: 29 November)

Event Time Altitude Azimuth Distance (km) Brightness Sun altitude
Rises 22:45:12 0° 289° (WNW) 2,384 1.4 -9.9°
Reaches altitude 10° 22:47:18 10° 290° (WNW) 1,519 0.2 -10.1°
Maximum altitude 22:50:43 85° 18° (NNE) 433 -3.7 -10.5°
Enters shadow 22:53:33 14° 109° (ESE) 1,282 -1.8 -10.9°
